TimePST,TemperatureF,Dew PointF,Humidity,Sea Level PressureIn,VisibilityMPH,Wind Direction,Wind SpeedMPH,Gust SpeedMPH,PrecipitationIn,Events,Conditions,WindDirDegrees,DateUTC
12:37 AM,46.4,46.4,100,30.00,1.0,ENE,5.8,-,N/A,,Mist,70,2012-12-12 08:37:00
12:44 AM,48.2,48.2,100,30.00,0.2,ENE,4.6,-,N/A,Fog,Fog,60,2012-12-12 08:44:00
12:53 AM,50.0,50.0,100,29.99,0.2,Calm,Calm,-,N/A,Fog,Fog,0,2012-12-12 08:53:00
1:31 AM,46.4,46.4,100,29.99,3.0,ENE,3.5,-,0.01,,Mostly Cloudy,60,2012-12-12 09:31:00
1:39 AM,46.4,46.4,100,29.99,9.0,East,4.6,-,0.01,,Scattered Clouds,80,2012-12-12 09:39:00
1:53 AM,45.0,45.0,100,29.98,9.0,ESE,6.9,-,0.01,,Clear,120,2012-12-12 09:53:00
2:53 AM,42.1,39.0,89,29.96,7.0,ESE,4.6,-,N/A,,Clear,110,2012-12-12 10:53:00
3:53 AM,45.0,39.0,80,29.95,9.0,Calm,Calm,-,N/A,,Clear,0,2012-12-12 11:53:00
4:53 AM,45.0,37.9,76,29.96,10.0,Calm,Calm,-,N/A,,Clear,0,2012-12-12 12:53:00
5:53 AM,45.0,37.0,74,29.97,10.0,East,3.5,-,N/A,,Clear,80,2012-12-12 13:53:00
6:53 AM,43.0,37.9,82,29.98,-9999.0,East,8.1,-,N/A,,Clear,100,2012-12-12 14:53:00
7:53 AM,50.0,41.0,71,29.98,-9999.0,ENE,3.5,-,N/A,,Clear,70,2012-12-12 15:53:00
8:53 AM,57.9,48.0,70,29.98,10.0,SE,8.1,-,N/A,,Clear,130,2012-12-12 16:53:00
9:53 AM,61.0,48.0,62,29.98,10.0,SSE,5.8,-,N/A,,Clear,160,2012-12-12 17:53:00
10:53 AM,62.1,48.9,62,29.96,10.0,Calm,Calm,-,N/A,,Clear,0,2012-12-12 18:53:00
11:53 AM,64.0,48.9,58,29.92,10.0,West,5.8,-,N/A,,Clear,270,2012-12-12 19:53:00
12:53 PM,66.9,50.0,54,29.89,10.0,WSW,6.9,50.6,N/A,,Clear,250,2012-12-12 20:53:00
1:53 PM,66.0,48.0,52,29.88,10.0,SW,9.2,-,N/A,,Clear,220,2012-12-12 21:53:00
2:53 PM,63.0,51.1,65,29.90,10.0,SW,8.1,-,N/A,,Scattered Clouds,220,2012-12-12 22:53:00
3:53 PM,61.0,51.1,70,29.91,10.0,North,-9999.0,-,N/A,,Mostly Cloudy,0,2012-12-12 23:53:00
4:50 PM,60.8,51.8,72,29.90,10.0,SSW,6.9,-,N/A,,Overcast,200,2012-12-13 00:50:00
4:53 PM,60.1,51.1,72,29.90,10.0,South,6.9,-,N/A,,Overcast,190,2012-12-13 00:53:00
5:53 PM,59.0,52.0,78,29.89,10.0,South,8.1,-,N/A,,Mostly Cloudy,180,2012-12-13 01:53:00
6:15 PM,59.0,51.8,77,29.89,10.0,South,11.5,-,N/A,,Overcast,170,2012-12-13 02:15:00
6:23 PM,59.0,51.8,77,29.89,10.0,South,8.1,-,N/A,,Overcast,180,2012-12-13 02:23:00
6:53 PM,59.0,51.1,75,29.89,10.0,South,8.1,-,N/A,,Overcast,170,2012-12-13 02:53:00
7:53 PM,59.0,51.1,75,29.90,10.0,South,10.4,-,N/A,,Overcast,170,2012-12-13 03:53:00
8:53 PM,57.9,52.0,81,29.91,10.0,South,11.5,-,0.00,,Overcast,170,2012-12-13 04:53:00
9:03 PM,57.2,51.8,82,29.91,10.0,South,12.7,-,N/A,,Overcast,170,2012-12-13 05:03:00
9:53 PM,59.0,52.0,78,29.90,10.0,South,10.4,-,N/A,,Overcast,170,2012-12-13 05:53:00
10:53 PM,59.0,51.1,75,29.89,10.0,SSE,11.5,-,N/A,,Overcast,160,2012-12-13 06:53:00
11:53 PM,57.9,50.0,75,29.88,10.0,SSE,9.2,-,N/A,,Overcast,150,2012-12-13 07:53:00